User: anonymous   Login
Location: Unspecified
(0.0000°N, 0.0000°E)
Time: 03:54:01
(UTC+02:00)
Language:

ARIANE 5 R/B - Orbit

View from above orbital plane
View from above orbital plane
View from above satellite
View from above satellite

Ground track
Ground track

The orbit data is extracted from the following two-line orbital elements,

1 29646U 06054D   15113.68301090  .00002056  00000-0  73956-3 0  9996
2 29646 003.0878 331.5371 7130226 310.2729 012.2557 02.46541864 72138
Epoch (UTC): 23 April 2015 16:23:32
Eccentricity: 0.7130226
inclination: 3.0878°
perigee height: 264 km
apogee height: 33271 km
right ascension of ascending node: 331.5371°
argument of perigee: 310.2729°
revolutions per day: 2.46541864
mean anomaly at epoch: 12.2557°
orbit number at epoch: 7213

The dashed part of the orbit path shows where the satellite is in the earth's shadow,  

DLR